Time,TemperatureF,DewpointF,PressureIn,WindDirection,WindDirectionDegrees,WindSpeedMPH,WindSpeedGustMPH,Humidity,HourlyPrecipIn,Conditions,Clouds,dailyrainin,SoftwareType,DateUTC
2013-01-18 00:03:00,14.7,7.4,30.33,WSW,247,0.0,0.0,72,0.00,,,0.00,WUHU21636XXSP,2013-01-18 06:03:00,
2013-01-18 00:08:00,14.8,7.5,30.33,WSW,247,0.0,0.0,72,0.00,,,0.00,WUHU21636XXSP,2013-01-18 06:08:00,
2013-01-18 00:13:00,14.8,7.5,30.32,WSW,247,0.0,0.0,72,0.00,,,0.00,WUHU21636XXSP,2013-01-18 06:13:00,
2013-01-18 00:18:00,15.0,7.3,30.32,WSW,247,0.0,0.0,71,0.00,,,0.00,WUHU21636XXSP,2013-01-18 06:18:00,
2013-01-18 00:23:00,15.0,7.7,30.32,WSW,247,0.0,0.0,72,0.00,,,0.00,WUHU21636XXSP,2013-01-18 06:23:00,
2013-01-18 00:28:00,15.0,7.3,30.32,WSW,247,0.0,0.0,71,0.00,,,0.00,WUHU21636XXSP,2013-01-18 06:28:00,
2013-01-18 00:33:00,15.0,7.3,30.32,WSW,247,0.0,0.0,71,0.00,,,0.00,WUHU21636XXSP,2013-01-18 06:33:00,
2013-01-18 00:38:00,15.2,7.6,30.33,WSW,247,0.0,0.0,71,0.00,,,0.00,WUHU21636XXSP,2013-01-18 06:38:00,
2013-01-18 00:43:00,15.4,7.8,30.32,WSW,247,0.0,0.0,71,0.00,,,0.00,WUHU21636XXSP,2013-01-18 06:43:00,
2013-01-18 00:48:00,15.6,8.0,30.32,WSW,247,0.0,0.0,71,0.00,,,0.00,WUHU21636XXSP,2013-01-18 06:48:00,
2013-01-18 00:53:00,15.8,8.1,30.32,WSW,247,0.0,0.0,71,0.00,,,0.00,WUHU21636XXSP,2013-01-18 06:53:00,
2013-01-18 00:58:00,15.8,8.1,30.33,WSW,247,0.0,0.0,71,0.00,,,0.00,WUHU21636XXSP,2013-01-18 06:58:00,
2013-01-18 01:03:00,15.8,8.1,30.33,WSW,247,0.0,0.0,71,0.00,,,0.00,WUHU21636XXSP,2013-01-18 07:03:00,
2013-01-18 01:08:00,16.2,8.8,30.32,WSW,247,0.0,0.0,72,0.00,,,0.00,WUHU21636XXSP,2013-01-18 07:08:00,
2013-01-18 01:13:00,16.4,8.7,30.32,WSW,247,0.0,0.0,71,0.00,,,0.00,WUHU21636XXSP,2013-01-18 07:13:00,
2013-01-18 01:18:00,16.7,9.0,30.33,WSW,247,0.0,0.0,71,0.00,,,0.00,WUHU21636XXSP,2013-01-18 07:18:00,
2013-01-18 01:23:00,16.7,9.0,30.32,WSW,247,0.0,0.0,71,0.00,,,0.00,WUHU21636XXSP,2013-01-18 07:23:00,
2013-01-18 01:28:00,16.7,9.0,30.32,WSW,247,0.0,0.0,71,0.00,,,0.00,WUHU21636XXSP,2013-01-18 07:28:00,
2013-01-18 01:33:00,16.7,8.7,30.31,WSW,247,0.0,0.0,70,0.00,,,0.00,WUHU21636XXSP,2013-01-18 07:33:00,
2013-01-18 01:38:00,16.9,8.9,30.31,WSW,247,0.0,0.0,70,0.00,,,0.00,WUHU21636XXSP,2013-01-18 07:38:00,
2013-01-18 01:43:00,16.9,8.5,30.31,SE,135,0.0,0.0,69,0.00,,,0.00,WUHU21636XXSP,2013-01-18 07:43:00,
2013-01-18 01:48:00,16.9,8.2,30.31,SE,135,0.0,0.0,68,0.00,,,0.00,WUHU21636XXSP,2013-01-18 07:48:00,
2013-01-18 01:53:00,16.9,8.2,30.31,SE,135,0.0,0.0,68,0.00,,,0.00,WUHU21636XXSP,2013-01-18 07:53:00,
2013-01-18 01:58:00,16.9,8.2,30.31,ESE,112,0.0,0.0,68,0.00,,,0.00,WUHU21636XXSP,2013-01-18 07:58:00,
2013-01-18 02:03:00,17.1,8.4,30.30,ESE,112,0.0,0.0,68,0.00,,,0.00,WUHU21636XXSP,2013-01-18 08:03:00,
2013-01-18 02:08:00,17.3,8.6,30.30,East,90,0.0,0.0,68,0.00,,,0.00,WUHU21636XXSP,2013-01-18 08:08:00,
2013-01-18 02:13:00,17.3,8.6,30.30,ESE,112,0.0,0.0,68,0.00,,,0.00,WUHU21636XXSP,2013-01-18 08:13:00,
2013-01-18 02:18:00,17.1,8.4,30.30,ENE,67,0.0,0.0,68,0.00,,,0.00,WUHU21636XXSP,2013-01-18 08:18:00,
2013-01-18 02:23:00,16.9,8.2,30.30,ENE,67,0.0,0.0,68,0.00,,,0.00,WUHU21636XXSP,2013-01-18 08:23:00,
2013-01-18 02:28:00,16.9,8.2,30.30,ENE,67,0.0,0.0,68,0.00,,,0.00,WUHU21636XXSP,2013-01-18 08:28:00,
2013-01-18 02:33:00,17.3,8.6,30.30,ENE,67,0.0,0.0,68,0.00,,,0.00,WUHU21636XXSP,2013-01-18 08:33:00,
2013-01-18 02:38:00,17.3,8.6,30.29,ENE,67,0.0,0.0,68,0.00,,,0.00,WUHU21636XXSP,2013-01-18 08:38:00,
2013-01-18 02:43:00,17.5,8.8,30.29,ENE,67,0.0,0.0,68,0.00,,,0.00,WUHU21636XXSP,2013-01-18 08:43:00,
2013-01-18 02:48:00,17.5,8.8,30.29,ENE,67,0.0,0.0,68,0.00,,,0.00,WUHU21636XXSP,2013-01-18 08:48:00,
2013-01-18 02:53:00,17.5,8.8,30.29,ENE,67,0.0,0.0,68,0.00,,,0.00,WUHU21636XXSP,2013-01-18 08:53:00,
2013-01-18 02:58:00,17.5,8.8,30.28,ENE,67,0.0,0.0,68,0.00,,,0.00,WUHU21636XXSP,2013-01-18 08:58:00,
2013-01-18 03:03:00,17.5,8.8,30.28,ENE,67,0.0,0.0,68,0.00,,,0.00,WUHU21636XXSP,2013-01-18 09:03:00,
2013-01-18 03:08:00,17.5,8.8,30.29,ENE,67,0.0,0.0,68,0.00,,,0.00,WUHU21636XXSP,2013-01-18 09:08:00,
2013-01-18 03:13:00,17.5,8.8,30.28,ENE,67,0.0,0.0,68,0.00,,,0.00,WUHU21636XXSP,2013-01-18 09:13:00,
2013-01-18 03:18:00,17.6,9.6,30.28,ENE,67,0.0,0.0,70,0.00,,,0.00,WUHU21636XXSP,2013-01-18 09:18:00,
2013-01-18 03:23:00,17.9,9.8,30.27,ENE,67,0.0,0.0,70,0.00,,,0.00,WUHU21636XXSP,2013-01-18 09:23:00,
2013-01-18 03:28:00,17.9,9.8,30.27,SSE,157,0.0,0.0,70,0.00,,,0.00,WUHU21636XXSP,2013-01-18 09:28:00,
2013-01-18 03:33:00,17.6,9.9,30.26,South,180,0.0,0.0,71,0.00,,,0.00,WUHU21636XXSP,2013-01-18 09:33:00,
2013-01-18 03:38:00,17.5,10.1,30.25,West,270,0.0,0.0,72,0.00,,,0.00,WUHU21636XXSP,2013-01-18 09:38:00,
2013-01-18 03:43:00,17.5,10.1,30.25,ESE,112,0.0,0.0,72,0.00,,,0.00,WUHU21636XXSP,2013-01-18 09:43:00,
2013-01-18 03:48:00,17.5,10.1,30.24,East,90,0.0,0.0,72,0.00,,,0.00,WUHU21636XXSP,2013-01-18 09:48:00,
2013-01-18 03:53:00,17.5,10.1,30.24,ESE,112,0.0,0.0,72,0.00,,,0.00,WUHU21636XXSP,2013-01-18 09:53:00,
2013-01-18 03:58:00,17.5,10.1,30.24,ENE,67,0.0,0.0,72,0.00,,,0.00,WUHU21636XXSP,2013-01-18 09:58:00,
2013-01-18 04:03:00,17.5,10.1,30.24,ENE,67,0.0,0.0,72,0.00,,,0.00,WUHU21636XXSP,2013-01-18 10:03:00,
2013-01-18 04:08:00,17.6,10.2,30.23,ESE,112,0.0,0.0,72,0.00,,,0.00,WUHU21636XXSP,2013-01-18 10:08:00,
2013-01-18 04:13:00,17.6,10.2,30.22,SSE,157,0.0,0.0,72,0.00,,,0.00,WUHU21636XXSP,2013-01-18 10:13:00,
2013-01-18 04:18:00,17.9,10.4,30.22,NNE,22,0.0,0.0,72,0.00,,,0.00,WUHU21636XXSP,2013-01-18 10:18:00,
2013-01-18 04:23:00,17.9,10.4,30.22,ESE,112,0.0,0.0,72,0.00,,,0.00,WUHU21636XXSP,2013-01-18 10:23:00,
2013-01-18 04:28:00,17.9,10.4,30.21,ESE,112,0.0,0.0,72,0.00,,,0.00,WUHU21636XXSP,2013-01-18 10:28:00,
2013-01-18 04:33:00,17.9,10.4,30.21,ESE,112,0.0,0.0,72,0.00,,,0.00,WUHU21636XXSP,2013-01-18 10:33:00,
2013-01-18 04:38:00,17.9,10.4,30.21,ESE,112,0.0,0.0,72,0.00,,,0.00,WUHU21636XXSP,2013-01-18 10:38:00,
2013-01-18 04:43:00,18.1,10.6,30.20,ENE,67,0.0,0.0,72,0.00,,,0.00,WUHU21636XXSP,2013-01-18 10:43:00,
2013-01-18 04:48:00,18.1,10.6,30.20,NE,45,0.0,0.0,72,0.00,,,0.00,WUHU21636XXSP,2013-01-18 10:48:00,
2013-01-18 04:53:00,18.1,10.6,30.20,NE,45,0.0,0.0,72,0.00,,,0.00,WUHU21636XXSP,2013-01-18 10:53:00,
2013-01-18 04:58:00,18.3,10.8,30.20,ENE,67,0.0,0.0,72,0.00,,,0.00,WUHU21636XXSP,2013-01-18 10:58:00,
2013-01-18 05:03:00,18.5,11.0,30.20,ENE,67,0.0,0.0,72,0.00,,,0.00,WUHU21636XXSP,2013-01-18 11:03:00,
2013-01-18 05:08:00,18.6,11.1,30.19,NE,45,0.0,0.0,72,0.00,,,0.00,WUHU21636XXSP,2013-01-18 11:08:00,
2013-01-18 05:13:00,18.6,11.1,30.18,NE,45,0.0,0.0,72,0.00,,,0.00,WUHU21636XXSP,2013-01-18 11:13:00,
2013-01-18 05:18:00,18.6,11.1,30.18,West,270,0.0,0.0,72,0.00,,,0.00,WUHU21636XXSP,2013-01-18 11:18:00,
2013-01-18 05:23:00,18.6,11.1,30.17,West,270,0.0,0.0,72,0.00,,,0.00,WUHU21636XXSP,2013-01-18 11:23:00,
2013-01-18 05:28:00,18.8,11.3,30.17,NW,315,0.0,0.0,72,0.00,,,0.00,WUHU21636XXSP,2013-01-18 11:28:00,
2013-01-18 05:33:00,18.8,11.3,30.17,North,0,0.0,0.0,72,0.00,,,0.00,WUHU21636XXSP,2013-01-18 11:33:00,
2013-01-18 05:38:00,18.8,11.6,30.16,NE,45,0.0,0.0,73,0.00,,,0.00,WUHU21636XXSP,2013-01-18 11:38:00,
2013-01-18 05:43:00,19.0,11.8,30.15,NE,45,0.0,0.0,73,0.00,,,0.00,WUHU21636XXSP,2013-01-18 11:43:00,
2013-01-18 05:48:00,19.0,11.8,30.15,SW,225,0.0,0.0,73,0.00,,,0.00,WUHU21636XXSP,2013-01-18 11:48:00,
2013-01-18 05:53:00,19.0,12.1,30.15,SSW,202,0.0,0.0,74,0.00,,,0.00,WUHU21636XXSP,2013-01-18 11:53:00,
2013-01-18 05:58:00,19.4,12.5,30.14,North,0,0.0,0.0,74,0.00,,,0.00,WUHU21636XXSP,2013-01-18 11:58:00,
2013-01-18 06:03:00,19.5,12.6,30.14,ENE,67,0.0,0.0,74,0.00,,,0.00,WUHU21636XXSP,2013-01-18 12:03:00,
2013-01-18 06:08:00,19.5,12.6,30.14,ENE,67,0.0,0.0,74,0.00,,,0.00,WUHU21636XXSP,2013-01-18 12:08:00,
2013-01-18 06:13:00,19.7,12.8,30.13,North,0,0.0,0.0,74,0.00,,,0.00,WUHU21636XXSP,2013-01-18 12:13:00,
2013-01-18 06:18:00,20.0,13.0,30.12,NW,315,0.0,0.0,74,0.00,,,0.00,WUHU21636XXSP,2013-01-18 12:18:00,
2013-01-18 06:19:00,20.0,13.0,30.12,NW,315,0.0,0.0,74,0.00,,,0.00,WUHU21636XXSP,2013-01-18 12:19:00,
2013-01-18 07:56:00,20.2,13.2,30.04,West,270,0.0,0.0,74,0.00,,,0.00,WUHU21636XXSP,2013-01-18 13:56:00,
2013-01-18 08:01:00,23.9,16.6,30.04,WNW,292,0.0,0.0,73,0.00,,,0.00,WUHU21636XXSP,2013-01-18 14:01:00,
2013-01-18 08:06:00,24.3,16.9,30.04,West,270,0.0,0.0,73,0.00,,,0.00,WUHU21636XXSP,2013-01-18 14:06:00,
2013-01-18 08:11:00,24.5,17.1,30.03,West,270,0.0,0.0,73,0.00,,,0.00,WUHU21636XXSP,2013-01-18 14:11:00,
2013-01-18 08:16:00,24.7,17.0,30.03,West,270,0.0,0.0,72,0.00,,,0.00,WUHU21636XXSP,2013-01-18 14:16:00,
2013-01-18 08:21:00,25.1,17.4,30.02,North,0,0.0,0.0,72,0.00,,,0.00,WUHU21636XXSP,2013-01-18 14:21:00,
2013-01-18 08:26:00,25.1,17.4,30.02,West,270,0.0,0.0,72,0.00,,,0.00,WUHU21636XXSP,2013-01-18 14:26:00,
2013-01-18 08:31:00,25.4,17.7,30.02,NW,315,0.0,0.0,72,0.00,,,0.00,WUHU21636XXSP,2013-01-18 14:31:00,
2013-01-18 08:36:00,25.6,17.9,30.00,WNW,292,0.0,0.0,72,0.00,,,0.00,WUHU21636XXSP,2013-01-18 14:36:00,
2013-01-18 08:41:00,26.0,18.3,30.01,WSW,247,0.0,0.0,72,0.00,,,0.00,WUHU21636XXSP,2013-01-18 14:41:00,
2013-01-18 08:46:00,26.1,18.4,30.00,West,270,0.0,0.0,72,0.00,,,0.00,WUHU21636XXSP,2013-01-18 14:46:00,
2013-01-18 08:51:00,26.1,18.4,30.00,WSW,247,0.0,0.0,72,0.00,,,0.00,WUHU21636XXSP,2013-01-18 14:51:00,
2013-01-18 08:56:00,26.4,18.6,29.99,NW,315,0.0,0.0,72,0.00,,,0.00,WUHU21636XXSP,2013-01-18 14:56:00,
2013-01-18 09:01:00,27.0,19.2,30.00,NW,315,0.0,0.0,72,0.00,,,0.00,WUHU21636XXSP,2013-01-18 15:01:00,
2013-01-18 09:06:00,27.3,19.5,29.99,WSW,247,0.0,0.0,72,0.00,,,0.00,WUHU21636XXSP,2013-01-18 15:06:00,
2013-01-18 09:11:00,27.7,19.6,29.99,WNW,292,0.0,0.0,71,0.00,,,0.00,WUHU21636XXSP,2013-01-18 15:11:00,
2013-01-18 09:16:00,28.0,20.2,29.98,SW,225,0.0,0.0,72,0.00,,,0.00,WUHU21636XXSP,2013-01-18 15:16:00,
2013-01-18 09:21:00,28.7,20.5,29.99,West,270,0.0,0.0,71,0.00,,,0.00,WUHU21636XXSP,2013-01-18 15:21:00,
2013-01-18 09:26:00,28.9,21.0,29.99,West,270,0.0,0.0,72,0.00,,,0.00,WUHU21636XXSP,2013-01-18 15:26:00,
2013-01-18 09:31:00,29.2,21.0,29.98,West,270,0.0,0.0,71,0.00,,,0.00,WUHU21636XXSP,2013-01-18 15:31:00,
2013-01-18 09:36:00,29.6,21.4,29.98,SE,135,0.0,0.0,71,0.00,,,0.00,WUHU21636XXSP,2013-01-18 15:36:00,
2013-01-18 09:41:00,29.6,21.4,29.98,West,270,0.0,0.0,71,0.00,,,0.00,WUHU21636XXSP,2013-01-18 15:41:00,
2013-01-18 09:46:00,29.8,21.6,29.98,SE,135,0.0,0.0,71,0.00,,,0.00,WUHU21636XXSP,2013-01-18 15:46:00,
2013-01-18 09:51:00,29.9,21.7,29.98,WNW,292,0.0,0.0,71,0.00,,,0.00,WUHU21636XXSP,2013-01-18 15:51:00,
2013-01-18 09:56:00,30.1,21.6,29.98,SSW,202,0.0,0.0,70,0.00,,,0.00,WUHU21636XXSP,2013-01-18 15:56:00,
2013-01-18 10:01:00,30.3,22.1,29.97,SW,225,0.0,0.0,71,0.00,,,0.00,WUHU21636XXSP,2013-01-18 16:01:00,
2013-01-18 10:06:00,30.8,22.5,29.97,WSW,247,0.0,0.0,71,0.00,,,0.00,WUHU21636XXSP,2013-01-18 16:06:00,
2013-01-18 10:11:00,30.9,22.3,29.96,West,270,0.0,0.0,70,0.00,,,0.00,WUHU21636XXSP,2013-01-18 16:11:00,
2013-01-18 10:16:00,30.9,22.3,29.97,SW,225,0.0,0.0,70,0.00,,,0.00,WUHU21636XXSP,2013-01-18 16:16:00,
2013-01-18 10:21:00,31.1,22.5,29.96,South,180,0.0,0.0,70,0.00,,,0.00,WUHU21636XXSP,2013-01-18 16:21:00,
2013-01-18 10:26:00,31.5,23.2,29.95,SW,225,0.0,0.0,71,0.00,,,0.00,WUHU21636XXSP,2013-01-18 16:26:00,
2013-01-18 10:31:00,31.8,23.2,29.94,SW,225,0.0,0.0,70,0.00,,,0.00,WUHU21636XXSP,2013-01-18 16:31:00,
2013-01-18 10:37:00,32.4,23.8,29.94,WSW,247,0.0,0.0,70,0.00,,,0.00,WUHU21636XXSP,2013-01-18 16:37:00,
2013-01-18 10:42:00,33.0,24.3,29.94,WNW,292,0.0,0.0,70,0.00,,,0.00,WUHU21636XXSP,2013-01-18 16:42:00,
2013-01-18 10:47:00,33.7,24.3,29.93,WSW,247,0.0,0.0,68,0.00,,,0.00,WUHU21636XXSP,2013-01-18 16:47:00,
2013-01-18 10:52:00,34.7,24.9,29.93,SSW,202,0.0,0.0,67,0.00,,,0.00,WUHU21636XXSP,2013-01-18 16:52:00,
2013-01-18 10:57:00,35.1,25.3,29.92,South,180,0.0,0.0,67,0.00,,,0.00,WUHU21636XXSP,2013-01-18 16:57:00,
2013-01-18 11:02:00,35.8,25.3,29.92,SSW,202,0.0,0.0,65,0.00,,,0.00,WUHU21636XXSP,2013-01-18 17:02:00,
2013-01-18 11:07:00,36.2,25.7,29.92,WSW,247,0.0,0.0,65,0.00,,,0.00,WUHU21636XXSP,2013-01-18 17:07:00,
2013-01-18 11:12:00,36.5,26.0,29.91,WNW,292,0.0,0.0,65,0.00,,,0.00,WUHU21636XXSP,2013-01-18 17:12:00,
2013-01-18 11:17:00,37.2,25.8,29.91,SW,225,0.0,8.8,63,0.00,,,0.00,WUHU21636XXSP,2013-01-18 17:17:00,
2013-01-18 11:22:00,37.4,26.0,29.90,West,270,0.0,8.8,63,0.00,,,0.00,WUHU21636XXSP,2013-01-18 17:22:00,
2013-01-18 11:27:00,37.7,26.3,29.89,SSE,157,3.0,3.0,63,0.00,,,0.00,WUHU21636XXSP,2013-01-18 17:27:00,
2013-01-18 11:32:00,38.1,26.3,29.89,SW,225,0.0,3.0,62,0.00,,,0.00,WUHU21636XXSP,2013-01-18 17:32:00,
2013-01-18 11:37:00,38.4,26.6,29.89,WSW,247,0.0,0.0,62,0.00,,,0.00,WUHU21636XXSP,2013-01-18 17:37:00,
2013-01-18 11:42:00,38.4,26.6,29.88,SW,225,0.0,0.0,62,0.00,,,0.00,WUHU21636XXSP,2013-01-18 17:42:00,
2013-01-18 11:47:00,38.8,26.6,29.88,WSW,247,0.0,0.0,61,0.00,,,0.00,WUHU21636XXSP,2013-01-18 17:47:00,
2013-01-18 11:52:00,38.6,26.8,29.87,SW,225,0.0,0.0,62,0.00,,,0.00,WUHU21636XXSP,2013-01-18 17:52:00,
2013-01-18 11:57:00,38.6,26.4,29.87,WSW,247,0.0,0.0,61,0.00,,,0.00,WUHU21636XXSP,2013-01-18 17:57:00,
2013-01-18 12:02:00,38.6,26.8,29.86,SW,225,0.0,0.0,62,0.00,,,0.00,WUHU21636XXSP,2013-01-18 18:02:00,
2013-01-18 12:07:00,39.1,27.2,29.85,SW,225,0.0,0.0,62,0.00,,,0.00,WUHU21636XXSP,2013-01-18 18:07:00,
2013-01-18 12:12:00,39.6,27.3,29.85,SW,225,0.0,0.0,61,0.00,,,0.00,WUHU21636XXSP,2013-01-18 18:12:00,
2013-01-18 12:17:00,40.3,27.6,29.85,SW,225,0.0,0.0,60,0.00,,,0.00,WUHU21636XXSP,2013-01-18 18:17:00,
2013-01-18 12:22:00,41.0,28.2,29.84,WSW,247,3.0,3.0,60,0.00,,,0.00,WUHU21636XXSP,2013-01-18 18:22:00,
2013-01-18 12:27:00,41.5,28.3,29.84,WSW,247,0.0,3.0,59,0.00,,,0.00,WUHU21636XXSP,2013-01-18 18:27:00,
2013-01-18 12:32:00,41.9,28.2,29.83,WSW,247,2.6,17.0,58,0.00,,,0.00,WUHU21636XXSP,2013-01-18 18:32:00,
2013-01-18 12:37:00,42.2,28.5,29.84,SW,228,1.2,17.0,58,0.00,,,0.00,WUHU21636XXSP,2013-01-18 18:37:00,
2013-01-18 12:42:00,42.6,28.5,29.83,WSW,247,3.4,16.0,57,0.00,,,0.00,WUHU21636XXSP,2013-01-18 18:42:00,
2013-01-18 12:47:00,43.2,29.0,29.83,SW,225,0.0,16.0,57,0.00,,,0.00,WUHU21636XXSP,2013-01-18 18:47:00,
2013-01-18 12:52:00,43.2,29.0,29.82,SSE,157,6.2,6.2,57,0.00,,,0.00,WUHU21636XXSP,2013-01-18 18:52:00,
2013-01-18 12:57:00,43.8,29.6,29.81,South,180,5.2,8.8,57,0.00,,,0.00,WUHU21636XXSP,2013-01-18 18:57:00,
2013-01-18 13:02:00,44.3,29.6,29.81,WSW,250,3.7,29.0,56,0.00,,,0.00,WUHU21636XXSP,2013-01-18 19:02:00,
2013-01-18 13:07:00,44.3,29.6,29.81,SW,220,8.0,29.0,56,0.00,,,0.00,WUHU21636XXSP,2013-01-18 19:07:00,
2013-01-18 13:12:00,44.7,29.6,29.81,WNW,292,5.8,17.4,55,0.00,,,0.00,WUHU21636XXSP,2013-01-18 19:12:00,
2013-01-18 13:17:00,44.9,29.8,29.80,SW,225,0.0,5.8,55,0.00,,,0.00,WUHU21636XXSP,2013-01-18 19:17:00,
2013-01-18 13:22:00,45.0,29.9,29.80,ESE,112,0.0,4.4,55,0.00,,,0.00,WUHU21636XXSP,2013-01-18 19:22:00,
2013-01-18 13:27:00,45.0,29.9,29.80,WSW,247,2.8,17.0,55,0.00,,,0.00,WUHU21636XXSP,2013-01-18 19:27:00,
2013-01-18 13:32:00,45.0,29.9,29.80,SSW,202,3.4,19.2,55,0.00,,,0.00,WUHU21636XXSP,2013-01-18 19:32:00,
2013-01-18 13:37:00,45.5,30.3,29.80,SW,225,0.0,19.2,55,0.00,,,0.00,WUHU21636XXSP,2013-01-18 19:37:00,
2013-01-18 13:42:00,45.9,30.2,29.80,SW,225,7.0,7.0,54,0.00,,,0.00,WUHU21636XXSP,2013-01-18 19:42:00,
2013-01-18 13:47:00,46.0,30.3,29.80,West,263,4.6,20.0,54,0.00,,,0.00,WUHU21636XXSP,2013-01-18 19:47:00,
2013-01-18 13:52:00,46.2,30.5,29.79,SSW,213,10.3,26.8,54,0.00,,,0.00,WUHU21636XXSP,2013-01-18 19:52:00,
2013-01-18 13:57:00,46.2,30.5,29.79,SW,225,8.4,26.8,54,0.00,,,0.00,WUHU21636XXSP,2013-01-18 19:57:00,
2013-01-18 14:02:00,46.2,30.5,29.79,SW,225,13.4,29.4,54,0.00,,,0.00,WUHU21636XXSP,2013-01-18 20:02:00,
2013-01-18 14:07:00,46.2,30.5,29.79,WSW,247,6.8,34.8,54,0.00,,,0.00,WUHU21636XXSP,2013-01-18 20:07:00,
2013-01-18 14:12:00,46.2,30.5,29.79,West,270,8.8,34.8,54,0.00,,,0.00,WUHU21636XXSP,2013-01-18 20:12:00,
2013-01-18 14:17:00,45.9,30.2,29.78,WNW,292,5.2,32.6,54,0.00,,,0.00,WUHU21636XXSP,2013-01-18 20:17:00,
2013-01-18 14:22:00,45.7,30.5,29.78,WSW,247,7.0,32.6,55,0.00,,,0.00,WUHU21636XXSP,2013-01-18 20:22:00,
2013-01-18 14:27:00,45.7,30.5,29.79,WSW,248,3.3,13.8,55,0.00,,,0.00,WUHU21636XXSP,2013-01-18 20:27:00,
2013-01-18 14:32:00,46.0,30.8,29.78,WNW,292,7.6,13.8,55,0.00,,,0.00,WUHU21636XXSP,2013-01-18 20:32:00,
2013-01-18 14:37:00,46.0,30.8,29.79,WSW,247,4.0,7.6,55,0.00,,,0.00,WUHU21636XXSP,2013-01-18 20:37:00,
2013-01-18 14:42:00,46.0,30.8,29.79,SW,217,15.1,29.0,55,0.00,,,0.00,WUHU21636XXSP,2013-01-18 20:42:00,
2013-01-18 14:47:00,46.0,30.8,29.79,SW,225,8.0,29.0,55,0.00,,,0.00,WUHU21636XXSP,2013-01-18 20:47:00,
2013-01-18 14:52:00,46.0,30.8,29.78,WSW,239,11.6,31.2,55,0.00,,,0.00,WUHU21636XXSP,2013-01-18 20:52:00,
2013-01-18 14:57:00,46.0,31.2,29.78,West,270,17.8,31.2,56,0.00,,,0.00,WUHU21636XXSP,2013-01-18 20:57:00,
2013-01-18 15:02:00,46.0,31.2,29.78,SW,225,12.8,22.8,56,0.00,,,0.00,WUHU21636XXSP,2013-01-18 21:02:00,
2013-01-18 15:07:00,46.0,31.2,29.77,WSW,247,3.4,26.8,56,0.00,,,0.00,WUHU21636XXSP,2013-01-18 21:07:00,
2013-01-18 15:12:00,46.0,31.2,29.78,SW,223,7.3,26.8,56,0.00,,,0.00,WUHU21636XXSP,2013-01-18 21:12:00,
2013-01-18 15:17:00,46.0,31.2,29.78,SW,225,14.6,24.0,56,0.00,,,0.00,WUHU21636XXSP,2013-01-18 21:17:00,
2013-01-18 15:22:00,45.9,31.1,29.78,SSW,212,12.0,25.4,56,0.00,,,0.00,WUHU21636XXSP,2013-01-18 21:22:00,
2013-01-18 15:27:00,45.7,30.9,29.77,West,270,3.0,25.4,56,0.00,,,0.00,WUHU21636XXSP,2013-01-18 21:27:00,
2013-01-18 15:32:00,45.5,31.2,29.77,WNW,292,0.0,3.0,57,0.00,,,0.00,WUHU21636XXSP,2013-01-18 21:32:00,
2013-01-18 15:37:00,45.3,31.0,29.77,West,270,0.0,4.4,57,0.00,,,0.00,WUHU21636XXSP,2013-01-18 21:37:00,
2013-01-18 15:42:00,45.3,31.0,29.77,SW,225,0.0,4.4,57,0.00,,,0.00,WUHU21636XXSP,2013-01-18 21:42:00,
2013-01-18 15:47:00,45.0,31.2,29.77,SW,225,11.0,11.0,58,0.00,,,0.00,WUHU21636XXSP,2013-01-18 21:47:00,
2013-01-18 15:52:00,45.0,31.2,29.76,WSW,247,0.0,11.0,58,0.00,,,0.00,WUHU21636XXSP,2013-01-18 21:52:00,
2013-01-18 15:57:00,45.0,31.2,29.77,WSW,247,0.0,1.6,58,0.00,,,0.00,WUHU21636XXSP,2013-01-18 21:57:00,
2013-01-18 16:02:00,45.0,31.2,29.76,SW,225,0.0,0.0,58,0.00,,,0.00,WUHU21636XXSP,2013-01-18 22:02:00,
2013-01-18 16:07:00,45.0,31.2,29.76,SW,225,0.0,0.0,58,0.00,,,0.00,WUHU21636XXSP,2013-01-18 22:07:00,
2013-01-18 16:12:00,45.0,31.2,29.76,WNW,292,2.6,2.6,58,0.00,,,0.00,WUHU21636XXSP,2013-01-18 22:12:00,
2013-01-18 16:17:00,44.9,31.5,29.76,SSW,202,3.0,3.0,59,0.00,,,0.00,WUHU21636XXSP,2013-01-18 22:17:00,
2013-01-18 16:22:00,44.7,31.3,29.76,SSW,202,0.0,3.0,59,0.00,,,0.00,WUHU21636XXSP,2013-01-18 22:22:00,
2013-01-18 16:27:00,44.5,31.1,29.76,SSW,202,0.0,3.0,59,0.00,,,0.00,WUHU21636XXSP,2013-01-18 22:27:00,
2013-01-18 16:32:00,44.3,31.4,29.77,WSW,247,0.0,0.0,60,0.00,,,0.00,WUHU21636XXSP,2013-01-18 22:32:00,
2013-01-18 16:37:00,44.1,30.7,29.76,WSW,247,0.0,0.0,59,0.00,,,0.00,WUHU21636XXSP,2013-01-18 22:37:00,
2013-01-18 16:42:00,44.0,31.1,29.76,SW,225,8.4,8.4,60,0.00,,,0.00,WUHU21636XXSP,2013-01-18 22:42:00,
2013-01-18 16:47:00,43.8,30.9,29.76,South,180,0.0,8.4,60,0.00,,,0.00,WUHU21636XXSP,2013-01-18 22:47:00,
2013-01-18 16:52:00,43.8,30.9,29.77,SW,225,0.0,0.0,60,0.00,,,0.00,WUHU21636XXSP,2013-01-18 22:52:00,
2013-01-18 16:57:00,43.4,30.9,29.77,WSW,247,0.0,3.0,61,0.00,,,0.00,WUHU21636XXSP,2013-01-18 22:57:00,
2013-01-18 17:02:00,43.2,30.7,29.77,WSW,247,0.0,3.0,61,0.00,,,0.00,WUHU21636XXSP,2013-01-18 23:02:00,
2013-01-18 17:07:00,42.8,30.8,29.78,SW,225,0.0,0.0,62,0.00,,,0.00,WUHU21636XXSP,2013-01-18 23:07:00,
2013-01-18 17:12:00,42.8,30.8,29.78,SW,225,0.0,0.0,62,0.00,,,0.00,WUHU21636XXSP,2013-01-18 23:12:00,
2013-01-18 17:17:00,42.4,30.8,29.78,SW,225,0.0,0.0,63,0.00,,,0.00,WUHU21636XXSP,2013-01-18 23:17:00,
2013-01-18 17:22:00,42.4,30.8,29.78,WNW,292,0.0,0.0,63,0.00,,,0.00,WUHU21636XXSP,2013-01-18 23:22:00,
2013-01-18 17:27:00,42.2,30.6,29.79,SW,225,0.0,0.0,63,0.00,,,0.00,WUHU21636XXSP,2013-01-18 23:27:00,
2013-01-18 17:32:00,42.1,30.5,29.79,SSE,157,0.0,0.0,63,0.00,,,0.00,WUHU21636XXSP,2013-01-18 23:32:00,
2013-01-18 17:37:00,42.1,30.9,29.78,SW,225,0.0,0.0,64,0.00,,,0.00,WUHU21636XXSP,2013-01-18 23:37:00,
2013-01-18 17:42:00,41.9,30.7,29.78,SW,225,0.0,0.0,64,0.00,,,0.00,WUHU21636XXSP,2013-01-18 23:42:00,
2013-01-18 17:47:00,41.5,30.3,29.78,SW,225,0.0,0.0,64,0.00,,,0.00,WUHU21636XXSP,2013-01-18 23:47:00,
2013-01-18 17:52:00,41.5,30.3,29.78,SSE,157,0.0,0.0,64,0.00,,,0.00,WUHU21636XXSP,2013-01-18 23:52:00,
2013-01-18 17:57:00,41.3,30.5,29.78,SW,225,0.0,0.0,65,0.00,,,0.00,WUHU21636XXSP,2013-01-18 23:57:00,
2013-01-18 18:02:00,41.3,30.5,29.79,SW,225,0.0,0.0,65,0.00,,,0.00,WUHU21636XXSP,2013-01-19 00:02:00,
2013-01-18 18:07:00,41.0,30.2,29.79,West,270,0.0,0.0,65,0.00,,,0.00,WUHU21636XXSP,2013-01-19 00:07:00,
2013-01-18 18:12:00,40.7,30.3,29.78,WNW,292,0.0,0.0,66,0.00,,,0.00,WUHU21636XXSP,2013-01-19 00:12:00,
2013-01-18 18:17:00,40.5,30.1,29.79,WSW,247,0.0,0.0,66,0.00,,,0.00,WUHU21636XXSP,2013-01-19 00:17:00,
2013-01-18 18:22:00,40.5,30.5,29.79,West,270,0.0,0.0,67,0.00,,,0.00,WUHU21636XXSP,2013-01-19 00:22:00,
2013-01-18 18:27:00,40.5,30.5,29.78,SW,225,0.0,0.0,67,0.00,,,0.00,WUHU21636XXSP,2013-01-19 00:27:00,
2013-01-18 18:32:00,40.5,30.5,29.78,West,270,0.0,0.0,67,0.00,,,0.00,WUHU21636XXSP,2013-01-19 00:32:00,
2013-01-18 18:37:00,40.3,30.3,29.78,West,270,0.0,0.0,67,0.00,,,0.00,WUHU21636XXSP,2013-01-19 00:37:00,
2013-01-18 18:42:00,40.2,30.2,29.78,SW,225,0.0,0.0,67,0.00,,,0.00,WUHU21636XXSP,2013-01-19 00:42:00,
2013-01-18 18:47:00,40.0,30.0,29.78,SW,225,0.0,0.0,67,0.00,,,0.00,WUHU21636XXSP,2013-01-19 00:47:00,
2013-01-18 18:52:00,40.0,30.4,29.78,WSW,247,0.0,0.0,68,0.00,,,0.00,WUHU21636XXSP,2013-01-19 00:52:00,
2013-01-18 18:57:00,39.8,30.2,29.78,SW,225,0.0,0.0,68,0.00,,,0.00,WUHU21636XXSP,2013-01-19 00:57:00,
2013-01-18 19:02:00,39.6,30.0,29.78,SW,225,0.0,0.0,68,0.00,,,0.00,WUHU21636XXSP,2013-01-19 01:02:00,
2013-01-18 19:07:00,39.6,30.3,29.78,SW,225,0.0,0.0,69,0.00,,,0.00,WUHU21636XXSP,2013-01-19 01:07:00,
2013-01-18 19:12:00,39.4,30.1,29.78,SW,225,0.0,0.0,69,0.00,,,0.00,WUHU21636XXSP,2013-01-19 01:12:00,
2013-01-18 19:17:00,39.4,30.1,29.78,SW,225,0.0,0.0,69,0.00,,,0.00,WUHU21636XXSP,2013-01-19 01:17:00,
2013-01-18 19:22:00,39.3,30.0,29.79,WSW,247,0.0,0.0,69,0.00,,,0.00,WUHU21636XXSP,2013-01-19 01:22:00,
2013-01-18 19:28:00,39.3,30.4,29.78,NW,315,0.0,0.0,70,0.00,,,0.00,WUHU21636XXSP,2013-01-19 01:28:00,
2013-01-18 19:34:00,39.3,30.0,29.78,SSW,202,0.0,0.0,69,0.00,,,0.00,WUHU21636XXSP,2013-01-19 01:34:00,
2013-01-18 19:39:00,39.1,29.8,29.79,West,270,0.0,0.0,69,0.00,,,0.00,WUHU21636XXSP,2013-01-19 01:39:00,
2013-01-18 19:44:00,39.1,30.2,29.79,West,270,0.0,0.0,70,0.00,,,0.00,WUHU21636XXSP,2013-01-19 01:44:00,
2013-01-18 19:49:00,38.8,30.0,29.78,NW,315,0.0,0.0,70,0.00,,,0.00,WUHU21636XXSP,2013-01-19 01:49:00,
2013-01-18 19:54:00,38.8,30.0,29.78,West,270,0.0,0.0,70,0.00,,,0.00,WUHU21636XXSP,2013-01-19 01:54:00,
2013-01-18 19:59:00,38.4,29.6,29.78,West,270,0.0,0.0,70,0.00,,,0.00,WUHU21636XXSP,2013-01-19 01:59:00,
2013-01-18 20:04:00,38.3,29.5,29.79,West,270,0.0,0.0,70,0.00,,,0.00,WUHU21636XXSP,2013-01-19 02:04:00,
2013-01-18 20:09:00,37.7,29.2,29.79,West,270,0.0,0.0,71,0.00,,,0.00,WUHU21636XXSP,2013-01-19 02:09:00,
2013-01-18 20:14:00,37.5,29.0,29.78,West,270,0.0,0.0,71,0.00,,,0.00,WUHU21636XXSP,2013-01-19 02:14:00,
2013-01-18 20:19:00,37.5,29.0,29.79,West,270,0.0,0.0,71,0.00,,,0.00,WUHU21636XXSP,2013-01-19 02:19:00,
2013-01-18 20:24:00,37.0,28.5,29.79,West,270,0.0,0.0,71,0.00,,,0.00,WUHU21636XXSP,2013-01-19 02:24:00,
2013-01-18 20:29:00,36.8,28.3,29.79,West,270,0.0,0.0,71,0.00,,,0.00,WUHU21636XXSP,2013-01-19 02:29:00,
2013-01-18 20:34:00,36.2,28.1,29.79,West,270,0.0,0.0,72,0.00,,,0.00,WUHU21636XXSP,2013-01-19 02:34:00,
2013-01-18 20:39:00,35.8,27.7,29.79,West,270,0.0,0.0,72,0.00,,,0.00,WUHU21636XXSP,2013-01-19 02:39:00,
2013-01-18 20:44:00,35.6,27.9,29.79,West,270,0.0,0.0,73,0.00,,,0.00,WUHU21636XXSP,2013-01-19 02:44:00,
2013-01-18 20:49:00,35.6,27.9,29.79,SW,225,0.0,0.0,73,0.00,,,0.00,WUHU21636XXSP,2013-01-19 02:49:00,
2013-01-18 20:54:00,35.3,27.5,29.80,SW,225,0.0,0.0,73,0.00,,,0.00,WUHU21636XXSP,2013-01-19 02:54:00,
2013-01-18 20:59:00,35.1,27.3,29.80,SW,225,0.0,0.0,73,0.00,,,0.00,WUHU21636XXSP,2013-01-19 02:59:00,
2013-01-18 21:04:00,34.9,27.1,29.80,SW,225,0.0,0.0,73,0.00,,,0.00,WUHU21636XXSP,2013-01-19 03:04:00,
2013-01-18 21:09:00,34.7,27.3,29.80,WSW,247,0.0,0.0,74,0.00,,,0.00,WUHU21636XXSP,2013-01-19 03:09:00,
2013-01-18 21:14:00,34.9,27.8,29.80,SW,225,0.0,0.0,75,0.00,,,0.00,WUHU21636XXSP,2013-01-19 03:14:00,
2013-01-18 21:19:00,34.9,27.8,29.80,SW,225,0.0,0.0,75,0.00,,,0.00,WUHU21636XXSP,2013-01-19 03:19:00,
2013-01-18 21:24:00,34.9,27.8,29.80,SE,135,0.0,0.0,75,0.00,,,0.00,WUHU21636XXSP,2013-01-19 03:24:00,
2013-01-18 21:29:00,34.7,27.6,29.80,SE,135,0.0,0.0,75,0.00,,,0.00,WUHU21636XXSP,2013-01-19 03:29:00,
2013-01-18 21:34:00,34.7,27.6,29.80,SE,135,0.0,0.0,75,0.00,,,0.00,WUHU21636XXSP,2013-01-19 03:34:00,
2013-01-18 21:39:00,34.7,27.6,29.80,WSW,247,0.0,0.0,75,0.00,,,0.00,WUHU21636XXSP,2013-01-19 03:39:00,
2013-01-18 21:44:00,34.7,27.9,29.80,SW,225,0.0,0.0,76,0.00,,,0.00,WUHU21636XXSP,2013-01-19 03:44:00,
2013-01-18 21:49:00,34.5,27.5,29.80,SW,225,0.0,0.0,75,0.00,,,0.00,WUHU21636XXSP,2013-01-19 03:49:00,
2013-01-18 21:54:00,34.3,27.3,29.80,SW,225,0.0,0.0,75,0.00,,,0.00,WUHU21636XXSP,2013-01-19 03:54:00,
2013-01-18 21:59:00,33.7,26.7,29.80,SW,225,0.0,0.0,75,0.00,,,0.00,WUHU21636XXSP,2013-01-19 03:59:00,
2013-01-18 22:04:00,33.6,26.6,29.80,SW,225,0.0,0.0,75,0.00,,,0.00,WUHU21636XXSP,2013-01-19 04:04:00,
2013-01-18 22:09:00,33.2,26.5,29.80,SW,225,0.0,0.0,76,0.00,,,0.00,WUHU21636XXSP,2013-01-19 04:09:00,
2013-01-18 22:14:00,33.0,26.3,29.79,SW,225,0.0,0.0,76,0.00,,,0.00,WUHU21636XXSP,2013-01-19 04:14:00,
2013-01-18 22:19:00,32.8,26.4,29.79,SW,225,0.0,0.0,77,0.00,,,0.00,WUHU21636XXSP,2013-01-19 04:19:00,
2013-01-18 22:24:00,33.0,26.9,29.80,South,180,0.0,0.0,78,0.00,,,0.00,WUHU21636XXSP,2013-01-19 04:24:00,
2013-01-18 22:29:00,33.0,27.2,29.80,South,180,0.0,0.0,79,0.00,,,0.00,WUHU21636XXSP,2013-01-19 04:29:00,
2013-01-18 22:34:00,33.0,26.9,29.80,South,180,0.0,0.0,78,0.00,,,0.00,WUHU21636XXSP,2013-01-19 04:34:00,
2013-01-18 22:39:00,33.0,26.9,29.80,South,180,0.0,0.0,78,0.00,,,0.00,WUHU21636XXSP,2013-01-19 04:39:00,
2013-01-18 22:44:00,33.0,26.9,29.80,South,180,0.0,0.0,78,0.00,,,0.00,WUHU21636XXSP,2013-01-19 04:44:00,
2013-01-18 22:49:00,33.0,26.9,29.80,WSW,247,0.0,0.0,78,0.00,,,0.00,WUHU21636XXSP,2013-01-19 04:49:00,
2013-01-18 22:54:00,33.0,26.9,29.80,WSW,247,0.0,0.0,78,0.00,,,0.00,WUHU21636XXSP,2013-01-19 04:54:00,
2013-01-18 22:59:00,33.0,26.6,29.80,WSW,247,0.0,0.0,77,0.00,,,0.00,WUHU21636XXSP,2013-01-19 04:59:00,
2013-01-18 23:01:00,33.0,26.6,29.80,WSW,247,0.0,0.0,77,0.00,,,0.00,WUHU21636XXSP,2013-01-19 05:01:00,
2013-01-18 23:02:00,33.0,26.6,29.80,WSW,247,0.0,0.0,77,0.00,,,0.00,WUHU21636XXSP,2013-01-19 05:02:00,
2013-01-18 23:07:00,32.7,26.3,29.80,WSW,247,0.0,0.0,77,0.00,,,0.00,WUHU21636XXSP,2013-01-19 05:07:00,
2013-01-18 23:12:00,32.0,25.7,29.80,WSW,247,0.0,0.0,77,0.00,,,0.00,WUHU21636XXSP,2013-01-19 05:12:00,
2013-01-18 23:17:00,31.8,25.5,29.80,WSW,247,0.0,0.0,77,0.00,,,0.00,WUHU21636XXSP,2013-01-19 05:17:00,
2013-01-18 23:22:00,31.8,25.5,29.80,WSW,247,0.0,0.0,77,0.00,,,0.00,WUHU21636XXSP,2013-01-19 05:22:00,
2013-01-18 23:27:00,31.5,25.1,29.80,WSW,247,0.0,0.0,77,0.00,,,0.00,WUHU21636XXSP,2013-01-19 05:27:00,
2013-01-18 23:32:00,31.5,25.1,29.79,WSW,247,0.0,0.0,77,0.00,,,0.00,WUHU21636XXSP,2013-01-19 05:32:00,
2013-01-18 23:37:00,31.3,24.9,29.80,WSW,247,0.0,0.0,77,0.00,,,0.00,WUHU21636XXSP,2013-01-19 05:37:00,
2013-01-18 23:42:00,31.1,25.0,29.80,WSW,247,0.0,0.0,78,0.00,,,0.00,WUHU21636XXSP,2013-01-19 05:42:00,
2013-01-18 23:47:00,30.9,24.8,29.79,WSW,247,0.0,0.0,78,0.00,,,0.00,WUHU21636XXSP,2013-01-19 05:47:00,
2013-01-18 23:52:00,30.8,24.7,29.79,WSW,247,0.0,0.0,78,0.00,,,0.00,WUHU21636XXSP,2013-01-19 05:52:00,
2013-01-18 23:57:00,30.6,24.5,29.79,WSW,247,0.0,0.0,78,0.00,,,0.00,WUHU21636XXSP,2013-01-19 05:57:00,